Date String (YYYY-MM-DD hh:mm:ss) UTC,Instrument flags,absolute air pressure of the measurement (hPa),sample flow rate (lpm),inlet stack bypass flow (lpm),air temperature of the measurement (°C),ambient temperature measured by the external sensor (°C),aerosol sample conditioner tube jacket temperature (°C),OPC LED temperature (°C),internal box temperature (°C),relative humidity of the measurement (%),span deviation,mass concentration of particles derived from Lorenz-Mie calculation of OPC scattering (μg/m³),mass concentration of particles derived from Lorenz-Mie calculation of OPC scattering (μg/m³),mass concentration of particles derived from Lorenz-Mie calculation of OPC scattering (μg/m³)
DateTimeUTC,F1_M11,P_M11,Q1_M11,Q2_M11,T1_M11,T2_M11,T3_M11,T4_M11,T5_M11,U1_M11,ZSPAN_M11,X0_M11,X2_M11,X1_M11
2024-01-19 06:00:00,SystemResetWarning,0837.2,5.00,000.00,018.9,018.6,000.0,027.2,020.0,8.6,0000.0,0010.52,0003.05,0002.03
2024-01-19 06:01:00,SystemResetWarning,0837.2,5.00,000.00,018.9,018.3,000.0,027.3,020.0,8.6,0000.0,0010.40,0003.09,0002.05
2024-01-19 06:02:00,SystemResetWarning,0837.3,5.00,000.00,018.9,018.1,000.0,027.3,020.0,8.6,0000.0,0009.41,0003.13,0002.07
2024-01-19 06:03:00,SystemResetWarning,0837.2,5.00,000.00,018.9,017.9,000.0,027.3,020.0,8.6,0000.0,0008.90,0003.15,0002.08
2024-01-19 06:04:00,SystemResetWarning,0837.2,5.00,000.00,018.8,017.7,000.0,027.3,020.0,8.6,0000.0,0009.47,0003.14,0002.07
2024-01-19 06:05:00,SystemResetWarning,0837.2,5.00,000.00,018.8,017.6,000.0,027.3,020.0,8.6,0000.0,0009.68,0003.15,0002.07
2024-01-19 06:06:00,SystemResetWarning,0837.2,5.00,000.00,018.8,017.4,000.0,027.3,020.0,8.6,0000.0,0010.23,0003.17,0002.08
2024-01-19 06:07:00,SystemResetWarning,0837.1,5.00,000.00,018.8,017.4,000.0,027.3,020.0,8.6,0000.0,0010.39,0003.20,0002.08
2024-01-19 06:08:00,SystemResetWarning,0837.0,5.01,000.00,018.8,017.9,000.0,027.2,020.4,8.6,0000.0,0010.38,0003.24,0002.10
2024-01-19 06:09:00,SystemResetWarning,0837.1,4.99,000.00,019.0,018.7,000.0,027.2,020.8,8.6,0000.0,0010.08,0003.27,0002.10
2024-01-19 06:10:00,SystemResetWarning,0837.2,4.98,000.00,019.0,018.9,000.0,027.2,020.4,8.6,0000.0,0009.96,0003.31,0002.10
2024-01-19 06:11:00,SystemResetWarning,0837.2,5.00,000.00,019.0,018.6,000.0,027.2,020.0,8.6,0000.0,0009.88,0003.30,0002.10
2024-01-19 06:12:00,SystemResetWarning,0837.0,5.01,000.00,018.9,018.4,000.0,027.2,020.0,8.6,0000.0,0009.96,0003.33,0002.10
2024-01-19 06:13:00,SystemResetWarning,0837.0,5.00,000.00,018.9,018.1,000.0,027.3,020.0,8.6,0000.0,0010.03,0003.32,0002.09
2024-01-19 06:14:00,SystemResetWarning,0837.0,5.00,000.00,018.9,017.9,000.0,027.3,020.0,8.6,0000.0,0010.44,0003.33,0002.09
2024-01-19 06:15:00,SystemResetWarning,0837.0,5.00,000.00,018.8,017.7,000.0,027.3,020.0,8.7,0000.0,0010.23,0003.35,0002.09
2024-01-19 06:16:00,SystemResetWarning,0837.1,4.99,000.00,018.8,017.6,000.0,027.3,020.0,8.7,0000.0,0009.92,0003.35,0002.10
2024-01-19 06:17:00,SystemResetWarning,0837.0,4.99,000.00,018.8,017.5,000.0,027.3,020.0,8.7,0000.0,0009.43,0003.33,0002.10
2024-01-19 06:18:00,SystemResetWarning,0837.0,5.00,000.00,018.8,017.5,000.0,027.3,020.1,8.7,0000.0,0009.62,0003.31,0002.11
2024-01-19 06:19:00,SystemResetWarning,0837.0,5.02,000.00,018.9,018.1,000.0,027.2,020.5,8.7,0000.0,0010.20,0003.28,0002.09
2024-01-19 06:20:00,SystemResetWarning,0836.9,5.00,000.00,019.0,018.8,000.0,027.2,020.7,8.6,0000.0,0010.18,0003.27,0002.08
2024-01-19 06:21:00,SystemResetWarning,0837.0,4.99,000.00,019.0,018.7,000.0,027.2,020.2,8.7,0000.0,0010.08,0003.23,0002.07
2024-01-19 06:22:00,SystemResetWarning,0837.0,5.01,000.00,018.9,018.4,000.0,027.2,020.0,8.7,0000.0,0009.92,0003.22,0002.10
2024-01-19 06:23:00,SystemResetWarning,0837.0,5.00,000.00,018.9,018.2,000.0,027.2,020.0,8.7,0000.0,0009.85,0003.20,0002.12
2024-01-19 06:24:00,SystemResetWarning,0836.9,5.00,000.00,018.9,018.0,000.0,027.3,020.0,8.8,0000.0,0009.82,0003.19,0002.14
2024-01-19 06:25:00,SystemResetWarning,0836.8,4.99,000.00,018.8,017.7,000.0,027.3,020.0,8.7,0000.0,0009.91,0003.15,0002.13
2024-01-19 06:26:00,SystemResetWarning,0836.8,5.01,000.00,018.8,017.6,000.0,027.3,020.0,8.8,0000.0,0009.32,0003.10,0002.10
2024-01-19 06:27:00,SystemResetWarning,0836.9,5.01,000.00,018.8,017.5,000.0,027.3,020.1,8.8,0000.0,0008.99,0003.09,0002.09
2024-01-19 06:28:00,SystemResetWarning,0837.0,5.00,000.00,018.9,018.1,000.0,027.2,020.5,8.8,0000.0,0008.86,0003.06,0002.07
2024-01-19 06:29:00,SystemResetWarning,0836.9,5.00,000.00,019.0,018.9,000.0,027.2,020.8,8.8,0000.0,0008.71,0003.12,0002.08
2024-01-19 06:30:00,SystemResetWarning,0836.8,4.99,000.00,019.0,018.8,000.0,027.2,020.2,8.7,0000.0,0008.15,0003.16,0002.10
2024-01-19 06:31:00,SystemResetWarning,0836.8,4.99,000.00,018.9,018.5,000.0,027.2,020.0,8.8,0000.0,0008.66,0003.15,0002.11
2024-01-19 06:32:00,SystemResetWarning,0836.8,5.00,000.00,018.9,018.2,000.0,027.2,020.0,8.9,0000.0,0009.06,0003.12,0002.10
2024-01-19 06:33:00,SystemResetWarning,0837.0,5.00,000.00,018.9,018.0,000.0,027.3,020.0,8.9,0000.0,0009.77,0003.08,0002.07
2024-01-19 06:34:00,SystemResetWarning,0836.9,5.00,000.00,018.9,017.8,000.0,027.3,020.0,8.9,0000.0,0009.94,0003.01,0002.05
2024-01-19 06:35:00,SystemResetWarning,0836.8,5.00,000.00,018.8,017.6,000.0,027.3,020.0,8.9,0000.0,0009.92,0002.96,0002.04
2024-01-19 06:36:00,SystemResetWarning,0836.8,5.00,000.00,018.8,017.5,000.0,027.3,020.0,9.0,0000.0,0009.36,0002.99,0002.05
2024-01-19 06:37:00,SystemResetWarning,0836.9,5.01,000.00,018.9,017.7,000.0,027.3,020.3,8.9,0000.0,0009.62,0002.98,0002.08
2024-01-19 06:38:00,SystemResetWarning,0836.9,5.01,000.00,019.0,018.5,000.0,027.2,020.7,8.9,0000.0,0010.84,0003.00,0002.11
2024-01-19 06:39:00,SystemResetWarning,0836.9,4.99,000.00,019.1,018.9,000.0,027.2,020.6,8.8,0000.0,0010.92,0003.10,0002.14
2024-01-19 06:40:00,SystemResetWarning,0836.8,4.99,000.00,019.0,018.7,000.0,027.2,020.1,8.9,0000.0,0011.79,0003.13,0002.17
2024-01-19 06:41:00,SystemResetWarning,0836.9,5.01,000.00,018.9,018.4,000.0,027.2,020.0,8.9,0000.0,0011.93,0003.14,0002.18
2024-01-19 06:42:00,SystemResetWarning,0836.9,5.00,000.00,018.9,018.2,000.0,027.3,020.0,8.9,0000.0,0011.44,0003.17,0002.20
2024-01-19 06:43:00,SystemResetWarning,0836.9,5.00,000.00,018.9,017.9,000.0,027.3,020.0,8.9,0000.0,0011.07,0003.20,0002.23
2024-01-19 06:44:00,SystemResetWarning,0836.9,4.99,000.00,018.9,017.7,000.0,027.3,020.0,9.0,0000.0,0010.55,0003.23,0002.26
2024-01-19 06:45:00,SystemResetWarning,0836.9,5.01,000.00,018.8,017.6,000.0,027.3,020.0,9.0,0000.0,0011.46,0003.28,0002.29
2024-01-19 06:46:00,SystemResetWarning,0836.8,5.01,000.00,018.8,017.5,000.0,027.3,020.1,9.0,0000.0,0011.73,0003.31,0002.32
2024-01-19 06:47:00,SystemResetWarning,0836.8,5.00,000.00,018.9,018.0,000.0,027.3,020.5,9.0,0000.0,0011.76,0003.32,0002.33
2024-01-19 06:48:00,SystemResetWarning,0836.8,5.00,000.00,019.0,018.9,000.0,027.2,020.8,9.0,0000.0,0011.46,0003.33,0002.35
2024-01-19 06:49:00,SystemResetWarning,0836.8,4.99,000.00,019.1,019.0,000.0,027.2,020.5,9.0,0000.0,0010.06,0003.32,0002.36
2024-01-19 06:50:00,SystemResetWarning,0836.7,5.00,000.00,019.0,018.7,000.0,027.2,020.1,9.0,0000.0,0010.04,0003.31,0002.38
2024-01-19 06:51:00,SystemResetWarning,0836.8,5.01,000.00,019.0,018.5,000.0,027.2,020.0,9.0,0000.0,0009.26,0003.25,0002.38
2024-01-19 06:52:00,SystemResetWarning,0836.9,5.00,000.00,018.9,018.2,000.0,027.3,020.0,9.0,0000.0,0008.41,0003.22,0002.39
2024-01-19 06:53:00,SystemResetWarning,0836.9,4.99,000.00,018.9,018.0,000.0,027.3,020.0,9.1,0000.0,0008.55,0003.27,0002.41
2024-01-19 06:54:00,SystemResetWarning,0836.9,5.00,000.00,018.9,017.8,000.0,027.3,020.0,9.1,0000.0,0008.43,0003.27,0002.44
2024-01-19 06:55:00,SystemResetWarning,0836.9,5.00,000.00,018.9,017.7,000.0,027.3,020.0,9.1,0000.0,0008.35,0003.26,0002.46
2024-01-19 06:56:00,SystemResetWarning,0836.9,5.00,000.00,018.8,017.6,000.0,027.3,020.0,9.1,0000.0,0008.38,0003.28,0002.48
2024-01-19 06:57:00,SystemResetWarning,0837.0,5.00,000.00,018.8,017.5,000.0,027.3,020.0,9.1,0000.0,0008.90,0003.30,0002.52
2024-01-19 06:58:00,SystemResetWarning,0837.0,5.01,000.00,018.9,017.9,000.0,027.3,020.4,9.1,0000.0,0009.62,0003.34,0002.57
2024-01-19 06:59:00,SystemResetWarning,0836.9,5.01,000.00,019.0,018.7,000.0,027.2,020.8,9.1,0000.0,0009.91,0003.36,0002.62
